Other Public Products
Issued by NWS Grand Forks, ND

Home | Current Version | Previous Version | Graphics & Text | Print | Product List | Glossary On
Versions: 1 2 3 4 5 6 7 8 9 10 11 12 13 14 15 16 17 18 19 20 21 22 23 24 25 26 27 28 29 30 31 32 33 34 35 36 37 38 39 40 41 42 43 44 45 46 47 48 49 50
000
FPUS83 KFGF 180731
OPUFGF
PRAIRIE TO PINES WEATHER ROUNDUP
NATIONAL WEATHER SERVICE EASTERN NORTH DAKOTA/GRAND FORKS ND
200 AM CDT FRI AUG 18 2017

 **SATELLITE DATA USED TO AUGMENT SKY COVER AT AUTOMATED STATIONS**
 *****  WEATHER ACROSS EASTERN NORTH DAKOTA  *****

CITY           SKY/WX    TMP DP  RH WIND       PRES   REMARKS
GRAND FORKS    FAIR      59  58  96 S3        29.82S
GRAND FORKS AF NOT AVBL
GRAND CITY NWS NOT AVBL
BUXTON           N/A     62  60  93 SW5         N/A
DEVILS LAKE    FAIR      64  58  80 CALM      29.86F
FARGO          FAIR      62  59  90 CALM      29.85R
WAHPETON ARPT  PTSUNNY   61  55  82 SW6       29.87S
$$

 *****  WEATHER ACROSS CENTRAL AND WESTERN NORTH DAKOTA  *****

CITY           SKY/WX    TMP DP  RH WIND       PRES   REMARKS
JAMESTOWN      LGT RAIN  63  59  87 W9        29.89R
BISMARCK       FAIR      63  58  83 CALM      29.86R
MINOT          LGT RAIN  63  59  87 S8        29.88R
MINOT AFB      FAIR      62  59  89 S6        29.87S
GARRISON         N/A     60  56  86 NE22G31   29.87R
WILLISTON      FAIR      56  52  86 N3        29.92S
DICKINSON      FAIR      55  49  80 NW6       29.93R
HETTINGER      FAIR      58  45  62 NW5       29.95R
$$

 *****  OTHER OBSERVATIONS NORTHEAST NORTH DAKOTA  *****

CITY           SKY/WX    TMP DP  RH WIND       PRES   REMARKS
WALHALLA       FAIR      57  57 100 CALM      29.82F
LANGDON        FAIR      54  54 100 CALM      29.86F
CAVALIER       FAIR      57  55  94 CALM      29.82S
GRAFTON        FAIR      59  59 100 CALM      29.83F
CANDO          PTSUNNY   61  61 100 CALM      29.87F
FORT TOTTEN    NOT AVBL
ROLLA          CLOUDY    57  57 100 SW6       29.88S
RUGBY          CLOUDY    63  63 100 W8        29.87R
 ***** THE ABOVE OBSERVATIONS ARE NON NWS ARE NOT QUALITY
        CONTROLLED AND MAY MIS-REPORT RAIN FOR SNOW...
$$

 *****  OTHER OBSERVATIONS SOUTHEAST NORTH DAKOTA *****

CITY           SKY/WX    TMP DP  RH WIND       PRES   REMARKS
COOPERSTOWN    FAIR      63  61  94 S6        29.87S
VALLEY CITY      N/A     64  64 100 SW14G21   29.90R
OAKES          NOT AVBL
GWINNER        SUNNY     59  59 100 CALM      29.87F
SHEYENNE NWR     N/A     60  60 100 SW2       29.95S
BUFFALO          N/A     63  58  82 E8          N/A
WYNDMERE       NOT AVBL
 ***** THE ABOVE OBSERVATIONS ARE NON NWS ARE NOT QUALITY
       CONTROLLED AND MAY MIS-REPORT RAIN FOR SNOW...
$$

  *****  WEATHER ACROSS NORTHERN MINNESOTA  *****

CITY           SKY/WX    TMP DP  RH WIND       PRES   REMARKS
FLAG ISLAND    FAIR      64  55  72 CALM      29.80S
WARROAD        FAIR      57  54  88 CALM      29.82F
ROSEAU         FAIR      57  52  82 CALM      29.82F
HALLOCK        FAIR      52  50  93 CALM      29.81F
THF RVR FALLS  FAIR      58  58 100 SW3       29.85S
HALSTAD          N/A     57  55  95 SW3         N/A
FOSSTON        FAIR      54  52  94 S5        29.86S FOG
BAUDETTE       FAIR      56  55  97 W3        29.81F
WASKISH        FAIR      50  48  93 CALM      29.82S
CROOKSTON      FAIR      57  55  94 S3        29.85R
$$
  *****  WEATHER ACROSS CENTRAL AND WEST MINNESOTA  *****

CITY           SKY/WX    TMP DP  RH WIND       PRES   REMARKS
BEMIDJI        FAIR      53  52  97 CALM      29.86R
PARK RAPIDS    FAIR      56  54  93 W5        29.86R
WADENA         FAIR      57  57 100 CALM      29.87S
DETROIT LAKES  FAIR      59  59 100 CALM      29.88S FOG
MOORHEAD       FAIR      61  55  82 CALM      29.86S
FERGUS FALLS   CLOUDY    63  63 100 CALM      29.87S
ELBOW LAKE     CLOUDY    59  59  99 CALM      29.89S
MORRIS MN      FAIR      63  61  94 W6        29.88S
STAPLES        FAIR      55  55 100 CALM      29.87R
WHEATON        MOCLDY    63  57  82 CALM      29.89S
$$
  *****  WEATHER ELSEWHERE ACROSS MINNESOTA  *****

CITY           SKY/WX    TMP DP  RH WIND       PRES   REMARKS
DULUTH         MOCLDY    58  58 100 N7        29.78F
INTRNTL FALLS  FOG       48  47  96 CALM      29.81S VSB 3/4
ELY            CLOUDY    59  57  94 NW5       29.79S
CLOQUET        FAIR      55  54  94 W3        29.80S
BRAINERD       FAIR      57  56  96 CALM      29.86R
HIBBING        FOG       49  49 100 CALM      29.80S VSB 1/2
ALEXANDRIA     FAIR      59  58  96 CALM      29.90R
SAINT CLOUD    FAIR      58  57  97 W3        29.87R
MINNEAPOLIS    FAIR      63  59  87 W6        29.86R
$$

  *****  WEATHER ACROSS SOUTH DAKOTA  *****

CITY           SKY/WX    TMP DP  RH WIND       PRES   REMARKS
SIOUX FALLS    RAIN      65  62  90 N5        29.93F
BROOKINGS      LGT RAIN  63  57  81 S10       29.90F
WATERTOWN      FAIR      61  57  87 CALM      29.89S
HURON          CLOUDY    63  57  81 S9        29.87S
SISSETON         N/A     63  60  90 CALM      29.87S
ABERDEEN       FAIR      63  60  90 W6        29.91R
MITCHELL       LGT RAIN  64  60  87 SE18      29.85F
PIERRE         FAIR      65  58  78 S8        29.89F
MOBRIDGE       FAIR      67  59  75 S10       29.86S
RAPID CITY     FAIR      60  47  61 W7        30.00R
$$

  *****  SOME WEATHER IN NEARBY STATES *****

CITY           SKY/WX    TMP DP  RH WIND       PRES   REMARKS
GLASGOW MT     FAIR      64  44  48 E5        29.96R
GREAT FALLS MT FAIR      60  35  39 N7        30.04S
CHEYENNE WY    FAIR      55  45  68 NW5       30.22R
SCOTTSBLUFF NE FAIR      57  50  77 NW8       30.10R
OMAHA NE       FAIR      68  61  78 SE7       29.92F
DES MOINES IA  FAIR      65  61  87 CALM      29.91S
DAVENPORT IA   FAIR      64  62  93 W7        29.86S
CHICAGO IL     FAIR      70  62  76 W13       29.76F
EAU CLAIRE WI  FAIR      63  58  83 W6        29.79S
LA CROSSE WI   CLOUDY    70  62  76 NW10      29.80S
$$

  *****  SOME NATIONAL WEATHER *****

CITY           SKY/WX    TMP DP  RH WIND       PRES   REMARKS
LA GUARDIA NY  CLOUDY    76  74  93 S9        29.91S
RALEIGH NC     FAIR      77  74  90 S3        29.94F
ATLANTA GA     FAIR      78  71  79 W6        30.01S
NEW ORLEANS LA FAIR      79  77  94 SW5       30.04F
OKLAHOMA CITY  MOCLDY    72  70  93 S5        30.01F
ALBUQUERQUE NM MOCLDY    77  40  26 NE7       30.17S
SALT LAKE CITY FAIR      74  38  27 SE6       30.11R
LOS ANGELES CA FAIR      66  62  87 W9        29.99S
BOISE ID       FAIR      68  37  32 SE8       30.05R
SEATTLE WA     FAIR      63  55  75 N9        30.16S
$$

*** WEATHER ACROSS MANITOBA...SASKATCHEWAN AND ONTARIO ***
                ***ONTARIO***

CITY           SKY/WX    TMP DP  RH WIND       PRES   REMARKS
GERALDTON      DRZL/FOG  55  55 100 NE9       29.70S VSB 1
THUNDER BAY    CLOUDY    61  57  88 W6        29.69R
SIOUX LOOKOUT  PTCLDY    46  46 100 CALM      29.80F
TORONTO        PTCLDY    70  70 100 S6        29.68F FOG
BIG TROUT LK   CLOUDY    64  55  72 S10       29.76F
PICKLE LAKE    NOT AVBL
DRYDEN         CLEAR     57  55  94 SW2       29.81S
KENORA         CLEAR     61  57  88 S5        29.82R
$$
                *** MANITOBA***

CITY           SKY/WX    TMP DP  RH WIND       PRES   REMARKS
BRANDON        MOCLDY    52  52 100 W3        29.85S
DAUPHIN        CLEAR     57  52  82 W9        29.81F
ISLAND LAKE    PTCLDY    63  57  82 SW6       29.74F
PILOT MOUND      N/A     54  52  94 SW5         N/A
THE PAS        MOCLDY    61  55  82 W3        29.75S
THOMPSON       PTCLDY    59  54  82 SW3       29.68S
WINNIPEG       CLEAR     55  52  88 S2        29.80F
LYNN LAKE      MOCLDY    57  50  77 MISG      29.66F
CHURCHILL      CLOUDY    57  54  88 S6        29.60F
GILLAM         CLEAR     61  50  67 S7        29.66F
$$
                ***SASKATCHEWAN***

CITY           SKY/WX    TMP DP  RH WIND       PRES   REMARKS
ESTEVAN        MOCLDY    59  55  88 CALM      29.91S
KINDERSLEY     MOCLDY    55  45  67 CALM      29.96S
LLOYDMINSTER   CLEAR     52  48  87 W7        29.91F
PRINCE ALBERT  CLEAR     54  52  94 W3        29.88R
REGINA         CLEAR     50  45  81 NW5       29.92S
YORKTON        CLEAR     57  52  82 W9        29.86F



USA.gov is the U.S. government's official web portal to all federal, state and local government web resources and services.